Starlink 31619

operational
NORAD ID: 59531 Int'l Des: 2024-073 Owner: SPXS Country: US Constellation: starlink
LEOCIRCULAR

About Starlink 31619

Description loading...

Live Position

Loading 3D Globe...

Upcoming Passes

Altitude History

Altitude vs Time

uPlot chart will show altitude changes over time

Two-Line Element Set

1 59531U 24073W 25258.62658050 .00000973 00000-0 44861-4 0 9999
2 59531 43.0059 226.5400 0000585 299.9337 60.1456 15.27583160 80520
Epoch: Sep 15, 2025 • Age: 19 hours

Current Status

Altitude 493.1 km
Velocity 7.62 km/s
Sub-Earth Point -36.13°S, 31.32°E
Launch Date Apr 17, 2024
Age 1.4 years
Type internet

Technical Details

Classification Payload
Mass 730.00 kg
Dry Mass 700.00 kg
Total Mass 730.00 kg
Length 0.30 m
Diameter 4.10 m
Span 29.00 m
Shape Box + pan
Manufacturer SPXS
Bus Type Starlink V2M
Phase Status In Orbit
Owner/State SPXS/US

Large Constellations

Loading constellations...